Location: Poughquag
(41.6090°N, 73.6820°W)
Time: 12:30:16
(UTC-04:00)

Vanguard 2 Rocket - Pass Details

Date: 03 June 2020
Orbit: 556 x 3324 km, 32.9° (Epoch: 06 July)

Event Time Altitude Azimuth Distance (km) Brightness Sun altitude
Rises 14:54:49 0° 234° (SW) 3,307 10.3 58.1°
Reaches altitude 10° 14:57:01 10° 225° (SW) 2,596 9.9 57.8°
Maximum altitude 15:02:46 38° 158° (SSE) 1,814 9.0 56.8°
Drops below altitude 10° 15:12:17 10° 96° (E) 4,313 10.2 55.2°
Sets 15:17:03 0° 90° (E) 5,800 10.7 54.3°
